TimeCST,TemperatureF,Dew PointF,Humidity,Sea Level PressureIn,VisibilityMPH,Wind Direction,Wind SpeedMPH,Gust SpeedMPH,PrecipitationIn,Events,Conditions,WindDirDegrees,DateUTC
12:53 AM,42.1,37.0,82,29.94,10.0,Calm,Calm,-,N/A,,Clear,0,2013-02-27 06:53:00
1:53 AM,41.0,35.6,81,29.94,10.0,Calm,Calm,-,N/A,,Clear,0,2013-02-27 07:53:00
2:53 AM,39.0,35.1,86,29.91,10.0,Calm,Calm,-,N/A,,Clear,0,2013-02-27 08:53:00
3:53 AM,39.0,35.1,86,29.91,10.0,Calm,Calm,-,N/A,,Clear,0,2013-02-27 09:53:00
4:53 AM,39.9,35.1,83,29.92,10.0,Calm,Calm,-,N/A,,Clear,0,2013-02-27 10:53:00
5:53 AM,41.0,36.0,82,29.94,10.0,Calm,Calm,-,N/A,,Clear,0,2013-02-27 11:53:00
6:53 AM,37.9,34.0,86,29.96,10.0,Calm,Calm,-,N/A,,Clear,0,2013-02-27 12:53:00
7:53 AM,41.0,37.0,86,30.00,10.0,Calm,Calm,-,N/A,,Clear,0,2013-02-27 13:53:00
8:53 AM,52.0,37.9,59,30.00,10.0,Variable,4.6,-,N/A,,Clear,0,2013-02-27 14:53:00
9:53 AM,57.9,39.0,49,30.00,10.0,Calm,Calm,-,N/A,,Clear,0,2013-02-27 15:53:00
10:53 AM,64.9,41.0,42,30.00,10.0,West,12.7,21.9,N/A,,Clear,260,2013-02-27 16:53:00
11:53 AM,64.0,39.9,41,30.03,10.0,NW,12.7,19.6,N/A,,Partly Cloudy,320,2013-02-27 17:53:00
12:53 PM,63.0,37.9,40,30.04,10.0,NNW,9.2,21.9,N/A,,Clear,330,2013-02-27 18:53:00
1:53 PM,63.0,33.1,33,30.04,10.0,NW,16.1,24.2,N/A,,Clear,320,2013-02-27 19:53:00
4:53 PM,62.1,26.1,25,30.05,10.0,NNW,13.8,20.7,N/A,,Clear,340,2013-02-27 22:53:00
5:53 PM,59.0,25.0,27,30.06,10.0,NW,13.8,20.7,N/A,,Clear,320,2013-02-27 23:53:00
6:53 PM,55.0,27.0,34,30.09,10.0,NW,5.8,-,N/A,,Clear,320,2013-02-28 00:53:00
7:53 PM,53.1,25.0,34,30.11,10.0,NW,5.8,-,N/A,,Clear,310,2013-02-28 01:53:00
8:53 PM,50.0,24.1,36,30.12,10.0,NW,4.6,-,N/A,,Clear,310,2013-02-28 02:53:00
10:53 PM,44.1,28.0,53,30.15,10.0,Calm,Calm,-,N/A,,Clear,0,2013-02-28 04:53:00
11:53 PM,44.1,26.1,49,30.15,10.0,WNW,5.8,-,N/A,,Clear,300,2013-02-28 05:53:00